DJ3OW-13 Weather Reports


time (UTC)temp
F
wind
direction
speed
knots
gust
knots
rain 1hr
in
rain 24hr
in
rain mn
in
humidity
%
barometer
mb
20260506213028 48 258 0.0 3.5 0.01 0.96 0.92 99 1009.7
20260506212046 48 0.0 1.7 0.01 0.97 0.92 99 1009.5
20260506211024 48 270 0.9 3.5 0.02 0.97 0.92 99 1009.6
20260506210022 48 0 0.0 1.7 0.01 0.97 0.91 99 1009.6
20260506205020 48 238 0.9 1.7 0.01 0.97 0.91 99 1009.7
20260506204018 48 263 1.7 3.5 0.01 0.97 0.91 99 1009.6
20260506203036 48 0.0 1.7 0.01 0.98 0.91 99 1009.5
20260506202114 48 0.0 1.7 0.02 0.98 0.91 99 1009.5
20260506201112 48 280 0.9 1.7 0.01 0.97 0.90 99 1009.5
20260506200110 48 300 0.0 1.7 0.01 0.98 0.90 99 1009.4
20260506195108 48 212 1.7 3.5 0.01 0.98 0.90 99 1009.3
20260506194106 48 268 1.7 3.5 0.01 0.99 0.90 99 1009.1
20260506193104 49 288 0.9 3.5 0.01 1.02 0.90 99 1009.1
20260506192102 49 297 0.9 1.7 0.00 1.00 0.89 99 1009.0
20260506191100 49 293 0.9 3.5 0.00 1.00 0.89 99 1008.9
20260506190058 49 272 2.6 6.1 0.00 1.00 0.89 99 1008.8
20260506185056 49 267 2.6 5.2 0.00 1.00 0.89 99 1008.7
20260506184054 49 275 1.7 3.5 0.00 1.00 0.89 99 1008.5
20260506183052 49 266 1.7 3.5 0.00 1.00 0.89 99 1008.5
20260506182050 49 264 2.6 5.2 0.00 1.00 0.89 99 1008.3
20260506181108 49 285 1.7 3.5 0.00 1.00 0.89 99 1008.3
20260506180045 50 274 2.6 6.1 0.00 1.00 0.89 99 1008.3
20260506175124 50 240 2.6 6.1 0.00 1.00 0.89 99 1008.2
20260506174102 50 267 2.6 7.0 0.00 1.00 0.89 99 1008.1
20260506173040 50 249 1.7 6.1 0.00 1.00 0.89 99 1008.2
20260506172038 50 262 1.7 7.0 0.00 1.00 0.89 98 1008.1
20260506171035 50 257 1.7 3.5 0.00 1.00 0.89 98 1008.0
20260506170033 50 258 1.7 6.1 0.00 1.00 0.89 98 1008.0
20260506165032 50 263 2.6 6.1 0.00 1.00 0.89 98 1008.0
20260506164110 50 261 1.7 3.5 0.00 1.00 0.89 98 1008.0
20260506163027 50 259 0.9 3.5 0.00 1.00 0.89 98 1008.0
20260506162025 51 244 1.7 6.1 0.00 1.00 0.89 98 1007.8
20260506161043 51 251 1.7 5.2 0.00 1.00 0.89 99 1007.9
20260506160021 51 245 1.7 5.2 0.00 1.00 0.89 98 1007.8
20260506155019 51 251 2.6 6.1 0.00 1.00 0.89 99 1008.0
20260506154017 51 257 0.9 3.5 0.00 1.00 0.89 99 1007.9
20260506153015 51 265 0.9 3.5 0.00 1.00 0.89 99 1007.9
20260506152114 51 256 2.6 5.2 0.00 1.00 0.89 99 1007.9
20260506151112 51 256 2.6 5.2 0.00 1.00 0.89 99 1007.8
20260506150130 51 260 1.7 5.2 0.00 1.00 0.89 99 1007.7
20260506145107 51 251 2.6 6.1 0.00 1.00 0.89 99 1007.6
20260506144106 51 259 1.7 6.1 0.01 1.00 0.89 99 1007.8
20260506143104 51 253 1.7 6.1 0.01 1.00 0.89 99 1007.9
20260506142101 51 241 1.7 3.5 0.01 1.00 0.89 99 1007.9
20260506141119 51 242 1.7 3.5 0.01 1.00 0.89 99 1007.8
20260506140057 51 240 1.7 3.5 0.02 1.00 0.89 99 1007.9
20260506135115 51 253 2.6 3.5 0.04 1.00 0.89 99 1007.8
20260506134053 51 260 1.7 5.2 0.04 0.99 0.87 99 1007.8
20260506133112 51 259 1.7 3.5 0.05 0.99 0.87 99 1007.8
20260506132049 51 257 0.9 3.5 0.05 0.99 0.87 99 1007.8
20260506131047 52 248 0.0 1.7 0.05 0.99 0.87 99 1007.8
20260506130045 51 0.0 1.7 0.04 0.98 0.86 99 1007.8
20260506125043 51 0.0 1.7 0.02 0.97 0.85 99 1007.8
20260506124041 51 0.0 1.7 0.01 0.96 0.84 99 1007.8
20260506123039 50 0.0 0.0 0.00 0.94 0.83 99 1007.7
20260506122037 51 270 0.0 1.7 0.00 0.94 0.83 99 1007.6
20260506121035 51 270 0.0 1.7 0.00 0.94 0.83 99 1007.5
20260506120033 51 0.0 0.0 0.00 0.94 0.83 99 1007.5
20260506115031 51 0.0 0.0 0.00 0.94 0.83 99 1007.5
20260506114029 50 0.0 1.7 0.00 0.94 0.83 99 1007.5
20260506113027 50 270 0.0 1.7 0.01 0.94 0.83 99 1007.5
20260506112025 50 0.0 1.7 0.01 0.94 0.83 99 1007.6
20260506111023 50 0.0 1.7 0.01 0.94 0.83 99 1007.5
20260506110021 51 0.0 0.0 0.02 0.94 0.83 99 1007.4
20260506105039 51 0.0 1.7 0.02 0.94 0.83 99 1007.4
20260506104017 50 0.0 0.0 0.04 0.94 0.83 99 1007.5
20260506103015 50 0.0 0.0 0.02 0.93 0.81 99 1007.4
20260506102113 50 0.0 0.0 0.02 0.93 0.81 99 1007.5
20260506101112 50 0.0 0.0 0.02 0.93 0.81 99 1007.4
20260506100110 50 0.0 0.0 0.01 0.92 0.80 99 1007.4
20260506095128 50 0.0 0.0 0.01 0.92 0.80 99 1007.2
20260506094105 50 0.0 1.7 0.00 0.91 0.79 99 1007.2
20260506093103 50 0.0 0.0 0.00 0.91 0.79 99 1007.1
20260506092101 50 0.0 1.7 0.00 0.91 0.79 99 1007.1
20260506091059 50 0.0 0.0 0.00 0.91 0.79 99 1007.1
20260506090057 50 0.0 1.7 0.00 0.91 0.79 99 1007.1
20260506085055 51 0.0 0.0 0.00 0.91 0.79 99 1007.0
20260506084053 50 0.0 0.0 0.00 0.91 0.79 99 1007.0
20260506083051 50 0.0 0.0 0.00 0.91 0.79 99 1006.9
20260506082049 51 270 0.9 1.7 0.01 0.91 0.79 99 1006.9
20260506081047 51 0.0 0.0 0.01 0.91 0.79 99 1006.9
20260506073039 51 68 0.0 1.7 0.05 0.91 0.79 99 1006.8
20260506072037 51 0.0 0.0 0.04 0.90 0.78 99 1006.8
20260506071035 51 0.0 1.7 0.05 0.90 0.78 99 1006.9
20260506062025 50 0.0 0.0 0.05 0.86 0.74 99 1006.7
20260506061023 50 0.0 0.0 0.05 0.85 0.73 99 1006.6
20260506051111 50 82 0.0 1.7 0.04 0.81 0.69 99 1006.6
20260506050109 50 0.0 1.7 0.06 0.81 0.69 99 1006.4
20260506045107 50 0.0 0.0 0.07 0.81 0.69 99 1006.6
20260506044105 50 0.0 0.0 0.06 0.79 0.66 99 1006.6
20260506043103 50 0.0 0.0 0.07 0.79 0.66 99 1006.7
20260506042101 51 0.0 0.0 0.07 0.78 0.65 99 1006.6
20260506041059 51 0.0 0.0 0.09 0.78 0.65 99 1006.6
20260506040057 51 0.0 0.0 0.11 0.76 0.63 99 1006.7
20260506035055 51 0.0 1.7 0.12 0.74 0.61 99 1006.8
20260506034113 51 0.0 0.0 0.14 0.74 0.60 99 1006.8
20260506033051 51 0.0 0.0 0.15 0.74 0.59 99 1006.9
20260506032109 51 0.0 0.0 0.17 0.74 0.58 99 1007.1
20260506031047 51 0.0 0.0 0.17 0.72 0.56 99 1007.1
20260506030045 51 0.0 0.0 0.14 0.70 0.52 99 1007.3
20260506025042 51 0.0 0.0 0.14 0.67 0.50 99 1007.3
20260506024040 51 0.0 0.0 0.13 0.64 0.46 99 1007.4
20260506023038 51 68 0.0 1.7 0.12 0.61 0.44 99 1007.5
20260506022036 51 0.0 0.0 0.11 0.59 0.41 99 1007.7
20260506021034 51 0.0 1.7 0.11 0.57 0.39 99 1007.6
20260506020052 51 0.0 0.0 0.11 0.56 0.38 99 1007.7
20260506015030 51 0.0 1.7 0.12 0.53 0.35 99 1007.8
20260506014048 51 0.0 0.0 0.12 0.51 0.33 99 1007.8
20260506013027 51 0.0 0.0 0.12 0.50 0.32 99 1007.8
20260506012024 51 0.0 0.0 0.13 0.48 0.31 99 1007.8
20260506011023 51 0.0 0.0 0.12 0.46 0.28 99 1007.9
20260506010020 51 0.0 0.0 0.13 0.45 0.27 98 1008.0
20260506005018 51 0.0 0.0 0.11 0.41 0.24 98 1008.1
20260506004016 51 0.0 0.0 0.09 0.39 0.21 98 1008.0
20260506003115 52 0.0 0.0 0.11 0.38 0.20 98 1008.3
20260506002112 52 0.0 0.0 0.09 0.35 0.18 98 1008.3
20260506001111 52 0.0 0.0 0.09 0.34 0.17 98 1008.4
20260506000108 52 0.0 0.0 0.08 0.32 0.14 98 1008.6
20260505235107 52 68 0.0 1.7 0.08 0.31 0.13 98 1008.7
20260505234105 52 0.0 0.0 0.08 0.30 0.12 98 1008.7
20260505233102 52 0.0 0.0 0.07 0.27 0.09 98 1008.8
20260505232120 52 0.0 0.0 0.07 0.26 0.08 98 1008.7
20260505231059 52 0.0 0.0 0.07 0.25 0.07 98 1008.8
20260505230056 52 0.0 0.0 0.06 0.24 0.06 98 1008.9
20260505225054 52 0.0 0.0 0.06 0.22 0.05 98 1008.9
20260505224113 52 90 0.0 1.7 0.06 0.21 0.04 97 1008.9
20260505223050 53 0.0 0.0 0.06 0.20 0.02 97 1009.1
20260505222048 52 0.0 0.0 0.06 0.19 0.01 97 1009.2
20260505221046 53 0.0 1.7 0.05 0.18 0.00 97 1009.1
20260505220044 53 0.0 1.7 0.06 0.18 0.00 97 1009.2
20260505215042 53 0.0 0.0 0.05 0.17 0.17 97 1009.3
20260505214040 53 68 0.0 3.5 0.04 0.15 0.15 97 1009.3
20260505213038 53 0.0 0.0 0.04 0.14 0.14 96 1009.4